Regional Weather Roundup
Issued by NWS

Home | Current Version | Previous Version | Graphics & Text | Print | Product List | Glossary On
Versions: 1 2 3 4 5 6 7 8 9 10 11 12 13 14 15 16 17 18 19 20 21 22 23 24 25 26 27
000
ASUS45 KCYS 140110
RWRWY

WYOMING REGIONAL WEATHER ROUNDUP
NATIONAL WEATHER SERVICE CHEYENNE WY
600 PM MST WED DEC 13 2017

NOTE:  "FAIR" INDICATES FEW OR NO CLOUDS BELOW 12,000 FEET
WITH NO SIGNIFICANT WEATHER AND/OR OBSTRUCTIONS TO VISIBILITY.

WYZ001-140200-
YELLOWSTONE NATIONAL PARK

CITY           SKY/WX    TMP DP  RH WIND       PRES   REMARKS
LK YELLOWSTONE   N/A     21  19  92 CALM      30.20R
W YELLOWSTONE  NOT AVBL

$$
WYZ002>013-054>058-071-098>099-140200-
NORTHERN WYOMING

CITY           SKY/WX    TMP DP  RH WIND       PRES   REMARKS
JACKSON        FLURRIES  26  24  92 NW3       30.18R
CODY           MIX PCPN  30  28  93 CALM      30.22R FOG
GREYBULL       CLOUDY    35  32  88 NW13      30.18R WCI  26
WORLAND        CLOUDY    35  32  88 NW9       30.19R WCI  28
SHERIDAN       MOCLDY    36  22  56 NW7       30.17R WCI  30
BUFFALO        CLOUDY    39  22  50 NW20G26   30.14R WCI  29
GILLETTE       CLOUDY    35  19  52 NW16      30.11S WCI  25
HULETT         CLOUDY    34  25  69 NW5       30.10S WCI  30
NEWCASTLE      FAIR      34  21  60 NW8       30.09R WCI  27

$$
WYZ014>020-022>026-101>103-140200-
CENTRAL WYOMING

CITY           SKY/WX    TMP DP  RH WIND       PRES   REMARKS
BIG PINEY      CLOUDY    30  19  63 N12       30.12R WCI  20
PINEDALE       CLOUDY    30  23  74 NW10      30.10R WCI  21
DUBOIS         CLOUDY    27  25  93 S12G17    30.11R WCI  16
LANDER         LGT SNOW  31  30  96 N6        30.15S FOG     WCI  25
RIVERTON       CLOUDY    31  25  78 NE10      30.16S WCI  22
CASPER         LGT SNOW  33  27  78 NW9       30.14R WCI  25
DOUGLAS        CLOUDY    40  19  43 N16       30.11R WCI  31

$$
WYZ021-027>030-104>119-140200-
SOUTHERN WYOMING

CITY           SKY/WX    TMP DP  RH WIND       PRES   REMARKS
EVANSTON       CLOUDY    29  26  89 SW10      30.15S WCI  20
FORT BRIDGER   CLOUDY    32  28  87 W15G22    30.16S WCI  21
ROCK SPRINGS   CLOUDY    30  23  75 NE15      30.12R WCI  19
DIXON          CLOUDY    35  23  61 NE3       30.10F
RAWLINS        CLOUDY    30  27  88 N12       30.10S FOG     WCI  20
SARATOGA       LGT SNOW  30  30 100 NW13      30.12R WCI  20
LARAMIE        CLOUDY    33  16  49 N7        30.05R WCI  27
CHEYENNE       CLOUDY    38  13  35 N9        30.05S WCI  31
TORRINGTON     FAIR      41  17  38 N14       30.05R
PINE BLUFFS    MOCLDY    39  12  33 MISG      30.05S

$$




USA.gov is the U.S. government's official web portal to all federal, state and local government web resources and services.